Tracking 35331 objects as of 16-Sep-2026
HD Live streaming from Space Station
objects crossing your sky now

SL-4 R/B


SL-4 R/B is no longer on orbit


NORAD ID: 14170
Int'l Code: 1983-068B
Launch date: July 5, 1983
Source: Commonwealth of Independent States (former USSR) (CIS)
Launch site: PLESETSK MISSILE AND SPACE COMPLEX (PKMTR)
Decay date: 1983-07-07

Note: This is a ROCKET BODY
Your satellite tracking list
Your tracking list is empty




NASA's NSSDC Master Catalog

Two Line Element Set (TLE):
1 14170U 83068  B 83188.40295795  .15730659 -10212-4 +20940-3 0  9992
2 14170 082.3487 064.3320 0010523 153.4382 206.7515 16.48867885000335
Source of the keplerian elements: AFSPC